Location: Houhaj�rvi
(61.2667°N, 23.0167°E)
Time: 19:30:23
(UTC+00:00)

MOS 1 - Pass Details

Date: 13 December 2019
Orbit: 879 x 891 km, 99.2° (Epoch: 17 January)

Event Time Altitude Azimuth Distance (km) Brightness Sun altitude
Exits shadow 17:50:21 69° 242° (WSW) 953 4.4 -30.7°
Maximum altitude 17:50:30 70° 254° (WSW) 951 4.5 -30.7°
Drops below altitude 10° 17:56:13 10° 338° (NNW) 2,573 7.0 -31.4°
Sets 17:58:39 0° 341° (NNW) 3,517 7.8 -31.7°
